Location: Cheching
(60.0667°N, 164.2167°W)
Time: 21:16:50
(UTC+00:00)

XW-2D - Pass Details

Date: 16 January 2021
Orbit: 505 x 525 km, 97.5° (Epoch: 07 March)

Event Time Altitude Azimuth Distance (km) Brightness Sun altitude
Rises 05:30:08 0° 224° (SW) 2,619 ? -20.9°
Reaches altitude 10° 05:33:50 10° 263° (W) 1,746 ? -21.4°
Maximum altitude 05:34:49 11° 278° (W) 1,698 ? -21.5°
Drops below altitude 10° 05:35:48 10° 293° (WNW) 1,752 ? -21.6°
Sets 05:39:33 0° 332° (NNW) 2,654 ? -22.1°
